Flag for Tunisia

Past Weather in Tunis, Tunisia — Yesterday and Last 2 Weeks

Now
68 °F

Passing clouds.


Feels Like: 68 °F
Forecast: 78 / 59 °F
Wind: 6 mph from West

Location: Tunis-Carthage
Current Time: Oct 24, 2020 at 5:09:06 am
Latest Report: Oct 24, 2020 at 4:00 am
Visibility: N/A
Pressure30.18 "Hg
Humidity: 78%
Dew Point: 61 °F
Location of TunisLocation

Past Weather in Tunis — Graph

°F

Tunis Temperature Yesterday

Maximum temperature yesterday: 90 °F (at 2:00 pm)
Minimum temperature yesterday: 64 °F (at 4:30 am)
Average temperature yesterday: 74 °F

High & Low Weather Summary for the Past Weeks

 TemperatureHumidityPressure
High90 °F (Oct 23, 2:00 pm)94% (Oct 10, 5:30 am)30.24 "Hg (Oct 10, 5:30 am)
Low52 °F (Oct 14, 3:00 am)17% (Oct 14, 1:30 pm)29.74 "Hg (Oct 14, 3:30 pm)
Average67 °F60%30.06 "Hg
* Reported Oct 9 3:00 am — Oct 24 3:30 am, Tunis. Weather by CustomWeather, © 2020

Note: Actual official high and low records may vary slightly from our data, if they occured in-between our weather recording intervals... More about our weather records

Tunis Weather History for the Previous 24 Hours

Scroll right to see more
 ConditionsComfort  
Time TempWeatherWind HumidityBarometerVisibility
3:30 am
Sat, Oct 24
68 °FPassing clouds.5 mph78%30.21 "HgN/A
3:00 am68 °FPassing clouds.5 mph78%30.21 "HgN/A
2:30 am70 °FPassing clouds.8 mph73%30.18 "HgN/A
2:00 am70 °FPassing clouds.8 mph69%30.21 "HgN/A
1:30 am70 °FPassing clouds.12 mph69%30.18 "HgN/A
12:30 am70 °FPassing clouds.6 mph69%30.18 "HgN/A
12:00 am70 °FPassing clouds.7 mph69%30.18 "HgN/A
11:30 pm
Fri, Oct 23
70 °FPassing clouds.5 mph69%30.18 "HgN/A
10:30 pm70 °FPassing clouds.3 mph73%30.18 "HgN/A
10:00 pm70 °FPassing clouds.7 mph73%30.18 "HgN/A
9:30 pm72 °FPassing clouds.6 mph69%30.18 "HgN/A
8:30 pm72 °FPassing clouds.8 mph69%30.18 "HgN/A
8:00 pm72 °FPassing clouds.6 mph69%30.18 "HgN/A
7:30 pm73 °FPassing clouds.5 mph65%30.15 "HgN/A
7:00 pm73 °FPassing clouds.7 mph65%30.15 "HgN/A
6:30 pm75 °FPassing clouds.7 mph61%30.15 "HgN/A
6:00 pm77 °FPassing clouds.9 mph57%30.12 "HgN/A
5:30 pm75 °FPassing clouds.7 mph65%30.12 "HgN/A
5:00 pm77 °FPassing clouds.7 mph57%30.12 "HgN/A
4:30 pm77 °FPassing clouds.8 mph57%30.12 "HgN/A
4:00 pm81 °FPassing clouds.10 mph48%30.12 "HgN/A
3:30 pm82 °FPassing clouds.12 mph45%30.09 "HgN/A
3:00 pm86 °FPassing clouds.13 mph29%30.09 "HgN/A
2:30 pm90 °FPassing clouds.5 mph20%30.09 "HgN/A
2:00 pm90 °FPassing clouds.6 mph20%30.09 "HgN/A
1:30 pm88 °FPassing clouds.6 mph21%30.09 "HgN/A
1:00 pm88 °FPassing clouds.6 mph22%30.09 "HgN/A
12:30 pm86 °FPassing clouds.7 mph25%30.12 "HgN/A
12:00 pm84 °FPassing clouds.9 mph33%30.12 "HgN/A
11:30 am82 °FPassing clouds.12 mph37%30.15 "HgN/A
11:00 am81 °FPassing clouds.12 mph39%30.15 "HgN/A
10:30 am79 °FPassing clouds.10 mph45%30.15 "HgN/A
9:30 am75 °FPassing clouds.9 mph57%30.15 "HgN/A
9:00 am73 °FPassing clouds.9 mph61%30.15 "HgN/A
8:30 am72 °FPassing clouds.7 mph65%30.15 "HgN/A
8:00 am70 °FPassing clouds.2 mph73%30.12 "HgN/A
7:30 am68 °FPassing clouds.1 mph78%30.12 "HgN/A
7:00 am66 °FPassing clouds.7 mph78%30.09 "HgN/A
6:30 am68 °FPassing clouds.7 mph78%30.09 "HgN/A
6:00 am66 °FPassing clouds.7 mph83%30.09 "HgN/A
5:30 am64 °FPassing clouds.3 mph83%30.09 "HgN/A
5:00 am64 °FPassing clouds.6 mph83%30.09 "HgN/A
Weather by CustomWeather, © 2020

See weather overview